Weather History for Millington, TN

Change the Weather History Date:

Friday, March 15, 2013

  Actual Average Record
Temperature  
Mean Temperature 60 °F -  
Max Temperature 77 °F 58 °F 84 °F (2012)
Min Temperature 44 °F 42 °F 32 °F (1999)
Degree Days  
Heating Degree Days 4    
Growing Degree Days 10 (Base 50)    
Moisture  
Dew Point 43 °F    
Average Humidity 56    
Maximum Humidity 71    
Minimum Humidity 41    
Precipitation  
Precipitation 0.00 in - - ()
Sea Level Pressure  
Sea Level Pressure 30.03 in    
Wind  
Wind Speed 4 mph (SSW)    
Max Wind Speed 22 mph    
Max Gust Speed -    
Visibility 10 miles    
Events      
Averages and records for this station are not official NWS values.
T = Trace of Precipitation, MM = Missing Value Source: NWS Daily Summary

Daily Weather History Graph

Daily Weather History Graph

Search for Another Location

Airport:

Trip Planner

Search our weather history database for the weather conditions in past years. The results will help you decide how hot, cold, wet, or windy it might be!

Date:

Astronomy

Mar. 15, 2013 Rise Set
Actual Time 7:09 AM CDT 7:07 PM CDT
Civil Twilight 6:44 AM CDT 7:32 PM CDT
Nautical Twilight 6:14 AM CDT 8:02 PM CDT
Astronomical Twilight 5:45 AM CDT 8:31 PM CDT
Moon 9:09 AM CDT (3/15) 11:10 PM CDT (3/15)
Length of Visible Light 12h 48m
Length of Day
11h 57m
Waxing Crescent, 15% of the Moon is Illuminated
Mar 15
Waxing Crescent
Mar 19
First Quarter
Mar 27
Full
Apr 2
Last Quarter
Apr 10
New

Hourly Weather History & Observations

Time (CDT) Temp. Dew Point Humidity Pressure Visibility Wind Dir Wind Speed Gust Speed Precip Events Conditions
12:55 AM 48.2 °F 35.6 °F 62% 30.14 in 10.0 mi Calm Calm - N/A   Partly Cloudy
1:55 AM 48.2 °F 35.6 °F 62% 30.14 in 10.0 mi Calm Calm - N/A   Partly Cloudy
2:55 AM 46.4 °F 35.6 °F 66% 30.13 in 10.0 mi Calm Calm - N/A   Clear
3:15 AM 44.6 °F 35.6 °F 71% 30.12 in 10.0 mi Calm Calm - N/A   Clear
3:35 AM 46.4 °F 35.6 °F 66% 30.11 in 10.0 mi Calm Calm - N/A   Clear
3:55 AM 44.6 °F 35.6 °F 71% 30.10 in 10.0 mi Calm Calm - N/A   Clear
4:15 AM 44.6 °F 35.6 °F 71% 30.10 in 10.0 mi Calm Calm - N/A   Clear
4:35 AM 44.6 °F 35.6 °F 71% 30.10 in 10.0 mi Calm Calm - N/A   Clear
4:55 AM 48.2 °F 37.4 °F 66% 30.10 in 10.0 mi Calm Calm - N/A   Clear
5:15 AM 50.0 °F 37.4 °F 62% 30.10 in 10.0 mi Calm Calm - N/A   Clear
5:35 AM 50.0 °F 39.2 °F 66% 30.10 in 10.0 mi SSW 3.5 mph - N/A   Clear
5:55 AM 48.2 °F 37.4 °F 66% 30.09 in 10.0 mi Calm Calm - N/A   Clear
6:55 AM 50.0 °F 39.2 °F 66% 30.09 in 10.0 mi SSW 3.5 mph - N/A   Clear
7:55 AM 51.8 °F 41.0 °F 67% 30.09 in 10.0 mi SSW 4.6 mph - N/A   Clear
8:55 AM 57.2 °F 44.6 °F 63% 30.09 in 10.0 mi SW 8.1 mph - N/A   Clear
10:55 AM 66.2 °F 46.4 °F 49% 30.07 in 10.0 mi SW 9.2 mph - N/A   Partly Cloudy
11:55 AM 69.8 °F 48.2 °F 46% 30.05 in 10.0 mi SSW 11.5 mph - N/A   Partly Cloudy
12:55 PM 73.4 °F 50.0 °F 44% 30.03 in 10.0 mi SSW 10.4 mph - N/A   Partly Cloudy
1:55 PM 75.2 °F 50.0 °F 41% 30.00 in 10.0 mi SSW 9.2 mph - N/A   Scattered Clouds
2:55 PM 77.0 °F 51.8 °F 41% 29.95 in 10.0 mi SSW 13.8 mph - N/A   Scattered Clouds
3:55 PM 77.0 °F 51.8 °F 41% 29.94 in 10.0 mi SW 21.9 mph - N/A   Scattered Clouds
4:55 PM 75.2 °F 53.6 °F 47% 29.92 in 10.0 mi SW 16.1 mph - N/A   Partly Cloudy
5:55 PM 75.2 °F 51.8 °F 44% 29.90 in 10.0 mi SSW 15.0 mph - N/A   Scattered Clouds
6:55 PM 73.4 °F 51.8 °F 47% 29.90 in 10.0 mi SSW 10.4 mph - N/A   Mostly Cloudy
7:55 PM 71.6 °F 50.0 °F 46% 29.90 in 10.0 mi South 8.1 mph - N/A   Mostly Cloudy
8:55 PM 71.6 °F 50.0 °F 46% 29.90 in 10.0 mi South 8.1 mph - N/A   Scattered Clouds
9:55 PM 69.8 °F 48.2 °F 46% 29.90 in 10.0 mi South 9.2 mph - N/A   Scattered Clouds
10:55 PM 71.6 °F 46.4 °F 41% 29.89 in 10.0 mi South 11.5 mph - N/A   Scattered Clouds
11:55 PM 69.8 °F 46.4 °F 43% 29.89 in 10.0 mi SSW 10.4 mph - N/A   Scattered Clouds